View from above orbital plane
|
View from above satellite
|
Ground track
|
The orbit data is extracted from the following two-line orbital elements,
1 22285U 92093B 21065.91431262 -.00000272 00000-0 -11581-3 0 9996
2 22285 71.0196 241.8927 0006033 235.0563 124.9993 14.15055886454748
Epoch (UTC): | 06 March 2021 21:56:36 |
Eccentricity: | 0.0006033 |
inclination: | 71.0196° |
perigee height: | 838 km |
apogee height: | 846 km |
right ascension of ascending node: | 241.8927° |
argument of perigee: | 235.0563° |
revolutions per day: | 14.15055886 |
mean anomaly at epoch: | 124.9993° |
orbit number at epoch: | 45474 |
The dashed part of the orbit path shows where the satellite is in the earth's shadow,
|
|